Weather History for McKinney, TX

Change the Weather History Date:

Sunday, November 18, 2012

  Actual Average (KADS) Record (KADS)
Temperature  
Mean Temperature 52 °F -  
Max Temperature 66 °F 63 °F 77 °F (1999)
Min Temperature 37 °F 47 °F 28 °F (2014)
Degree Days  
Heating Degree Days 14    
Growing Degree Days 2 (Base 50)    
Moisture  
Dew Point 34 °F    
Average Humidity 51    
Maximum Humidity 73    
Minimum Humidity 30    
Precipitation  
Precipitation 0.00 in - - ()
Sea Level Pressure  
Sea Level Pressure 30.28 in    
Wind  
Wind Speed 4 mph (SSE)    
Max Wind Speed 16 mph    
Max Gust Speed 21 mph    
Visibility 10 miles    
Events      
Averages and records for this station are not official NWS values.
T = Trace of Precipitation, MM = Missing Value Source: NWS Daily Summary

Daily Weather History Graph

Daily Weather History Graph

Search for Another Location

Airport:

Trip Planner

Search our weather history database for the weather conditions in past years. The results will help you decide how hot, cold, wet, or windy it might be!

Date:

Astronomy

Nov. 18, 2012 Rise Set
Actual Time 7:00 AM CST 5:22 PM CST
Civil Twilight 6:34 AM CST 5:48 PM CST
Nautical Twilight 6:03 AM CST 6:19 PM CST
Astronomical Twilight 5:34 AM CST 6:48 PM CST
Moon 11:31 AM CST (11/18) 10:38 PM CST (11/18)
Length of Visible Light 11h 14m
Length of Day
10h 22m
Waxing Crescent, 30% of the Moon is Illuminated
Nov 18
Waxing Crescent
Nov 20
First Quarter
Nov 28
Full
Dec 6
Last Quarter
Dec 13
New

Hourly Weather History & Observations

Time (CST) Temp. Dew Point Humidity Pressure Visibility Wind Dir Wind Speed Gust Speed Precip Events Conditions
12:53 AM 37.9 °F 28.9 °F 70% 30.33 in 10.0 mi Calm Calm - N/A   Clear
1:53 AM 37.9 °F 28.0 °F 68% 30.33 in 10.0 mi Calm Calm - N/A   Clear
2:53 AM 39.9 °F 30.0 °F 68% 30.32 in 10.0 mi Calm Calm - N/A   Clear
3:53 AM 37.9 °F 28.9 °F 70% 30.31 in 10.0 mi Calm Calm - N/A   Clear
4:53 AM 39.9 °F 32.0 °F 73% 30.31 in 10.0 mi Calm Calm - N/A   Clear
5:53 AM 41.0 °F 32.0 °F 70% 30.31 in 10.0 mi Calm Calm - N/A   Clear
6:53 AM 41.0 °F 32.0 °F 70% 30.32 in 10.0 mi Calm Calm - N/A   Clear
7:53 AM 44.1 °F 34.0 °F 68% 30.34 in 10.0 mi Calm Calm - N/A   Clear
8:53 AM 51.1 °F 37.0 °F 59% 30.35 in 10.0 mi South 5.8 mph - N/A   Clear
9:53 AM 57.0 °F 35.1 °F 44% 30.34 in 10.0 mi South 16.1 mph - N/A   Clear
10:53 AM 57.0 °F 35.1 °F 44% 30.35 in 10.0 mi South 15.0 mph - N/A   Clear
11:53 AM 61.0 °F 35.1 °F 38% 30.31 in 10.0 mi South 16.1 mph - N/A   Partly Cloudy
12:53 PM 62.1 °F 36.0 °F 38% 30.28 in 10.0 mi South 12.7 mph - N/A   Partly Cloudy
1:53 PM 63.0 °F 36.0 °F 37% 30.24 in 10.0 mi SSE 13.8 mph - N/A   Clear
2:53 PM 66.0 °F 36.0 °F 33% 30.22 in 10.0 mi SSE 12.7 mph 20.7 mph N/A   Clear
3:53 PM 66.9 °F 34.0 °F 30% 30.23 in 10.0 mi SSE 13.8 mph - N/A   Clear
4:53 PM 64.0 °F 32.0 °F 30% 30.23 in 10.0 mi SSE 11.5 mph - N/A   Clear
5:53 PM 60.1 °F 35.1 °F 39% 30.23 in 10.0 mi SSE 6.9 mph - N/A   Clear
6:53 PM 60.1 °F 35.1 °F 39% 30.25 in 10.0 mi SE 6.9 mph - N/A   Clear
7:53 PM 57.9 °F 36.0 °F 44% 30.25 in 10.0 mi South 4.6 mph - N/A   Clear
8:53 PM 57.0 °F 37.0 °F 47% 30.25 in 10.0 mi South 4.6 mph - N/A   Clear
9:53 PM 55.9 °F 37.0 °F 49% 30.24 in 10.0 mi SSE 5.8 mph - N/A   Clear
10:53 PM 57.0 °F 37.9 °F 49% 30.24 in 10.0 mi SSE 5.8 mph - N/A   Clear
11:53 PM 57.9 °F 37.0 °F 46% 30.23 in 10.0 mi SSE 8.1 mph - N/A   Clear